Location: Newark
(21.1200°N, 73.4000°E)
Time: 03:27:59
(UTC+00:00)

Courier 1B Rocket - Pass Details

Date: 23 January 2020
Orbit: 920 x 1202 km, 28.2° (Epoch: 17 February)

Event Time Altitude Azimuth Distance (km) Brightness Sun altitude
Rises 15:03:39 0° 269° (W) 3,544 9.1 -30.7°
Reaches altitude 10° 15:07:16 10° 248° (WSW) 2,605 8.1 -31.5°
Maximum altitude 15:11:00 16° 211° (SSW) 2,193 7.2 -32.4°
Enters shadow 15:14:47 10° 174° (S) 2,646 7.3 -33.3°
Drops below altitude 10° 15:14:48 10° 174° (S) 2,651 - -33.3°
Sets 15:18:33 0° 154° (SSE) 3,638 - -34.1°
